Tracking 19847 objects as of 17-Sep-2019
HD Live streaming from Space Station
objects crossing your sky now

COSMOS 1275 DEB

Track COSMOS 1275 DEB now!
10-day predictions


NORAD ID: 12714
Int'l Code: 1981-053BJ
Perigee: 956.9 km
Apogee: 1,144.7 km
Inclination: 83.0 °
Period: 106.1 minutes
Semi major axis: 7421 km
RCS: 0.2013 m2 (medium)
Launch date: June 4, 1981
Source: Commonwealth of Independent States (former USSR) (CIS)
Launch site: PLESETSK MISSILE AND SPACE COMPLEX (PKMTR)

Note: This is SATELLITE DEBRIS
aabbcc
Your satellite tracking list
Your tracking list is empty




NASA's NSSDC Master Catalog

Two Line Element Set (TLE):
1 12714U 81053BJ  19258.84778993 -.00000133 +00000-0 -19625-3 0  9997
2 12714 082.9752 306.2148 0126497 052.0360 309.2135 13.57818726882019
Source of the keplerian elements: AFSPC